Location: *
(45.9500°N, 9.0833°E)
Time: 20:52:25
(UTC+00:00)

Tiros 1 - Pass Details

Date: 18 June 2021
Orbit: 630 x 664 km, 48.4° (Epoch: 05 August)

Event Time Altitude Azimuth Distance (km) Brightness Sun altitude
Rises 15:27:32 0° 289° (WNW) 2,959 11.4 36.8°
Reaches altitude 10° 15:29:54 10° 285° (WNW) 2,052 10.9 36.3°
Maximum altitude 15:34:29 51° 210° (SSW) 820 8.6 35.5°
Drops below altitude 10° 15:39:06 10° 135° (SE) 2,064 9.5 34.7°
Sets 15:41:29 0° 130° (SE) 2,977 10.2 34.3°
